Flag for Bahamas Weather past 2 weeks in Nassau, Bahamas

Now
84 °F

Passing clouds.


Feels Like: 94 °F
Forecast: 82 / 88 °F
Wind: 2 mph from North

Location: Nassau Airport

Current Time: Aug 28, 2014 at 10:19:28 PM

Latest Report: Aug 28, 2014 at 10:00 PM


Visibility: N/A

Pressure: 30.03 "Hg

Humidity: 79%

Dew point: 77 °F

Location of NassauLocation

Historic Weather in Nassau — Graph

°F

Nassau temperature yesterday

Maximum temperature yesterday: 90 °F (at 2:00 PM)
Minimum temperature yesterday: 79 °F (at 12:00 AM)
Average temperature yesterday: 83 °F

Past Weeks' High & Low Weather Summary

 TemperatureHumidityPressure
High95 °F (Aug 14, 2:00 PM)94% (Aug 18, 11:00 PM)30.14 "Hg (Aug 18, 11:00 PM)
Low75 °F (Aug 19, 6:00 AM)52% (Aug 14, 3:00 PM)29.69 "Hg (Aug 25, 4:00 PM)
Average85 °F74%29.98 "Hg
* Reported Aug 13 9:00 PM — Aug 28 9:00 PM, Nassau, Weather by CustomWeather, © 2014

Note: Actual official high and low records may vary slightly from our data, if they occured in-between our weather recording intervals... More about our weather records

Advertising

Nassau weather history for previous 24 hours

 ConditionsComfort  
Time TempWeatherWind HumidityBarometerVisibility
9:00 PM
Aug 28
84 °FWarm.3 mph79%30.02 "HgN/A
8:00 PM86 °FPassing clouds.6 mph79%30.00 "HgN/A
7:00 PM86 °FPassing clouds.6 mph70%29.99 "HgN/A
6:00 PM86 °FWarm.N/A70%29.99 "HgN/A
5:00 PM88 °FScattered clouds.5 mph75%30.00 "HgN/A
4:00 PM82 °FRain showers. Scattered clouds.6 mph84%30.00 "HgN/A
3:00 PM88 °FScattered clouds.6 mph70%30.01 "HgN/A
2:00 PM88 °FPartly sunny.9 mph75%30.03 "HgN/A
1:00 PM86 °FPartly sunny.5 mph75%30.03 "HgN/A
12:00 PM88 °FScattered clouds.6 mph70%30.03 "HgN/A
10:00 AM84 °FScattered showers. Partly sunny.2 mph79%30.04 "HgN/A
9:00 AM84 °FSprinkles. Broken clouds.7 mph79%30.03 "Hg6 mi
8:00 AM84 °FBroken clouds.2 mph84%30.02 "HgN/A
7:00 AM82 °FPassing clouds.6 mph79%29.99 "HgN/A
6:00 AM82 °FPassing clouds.7 mph79%29.98 "HgN/A
5:00 AM82 °FPassing clouds.2 mph84%29.97 "HgN/A
4:00 AM81 °FPassing clouds.3 mph79%29.97 "HgN/A
2:00 AM84 °FPassing clouds.7 mph79%30.00 "HgN/A
1:00 AM82 °FPassing clouds.3 mph79%30.00 "HgN/A
12:00 AM81 °FPassing clouds.No wind84%30.00 "HgN/A
11:00 PM
Aug 27
79 °FRain showers. Partly cloudy.No wind94%30.00 "HgN/A
10:00 PM79 °FSprinkles. Partly cloudy.6 mph84%30.00 "HgN/A
Weather by CustomWeather, © 2014

See weather overviewHow to use our weather pages